Location: Peach Mountain Observatory
(42.3967°N, 83.9367°W)
Time: 00:12:26
(UTC-05:00)

deb Explorer IX - Pass Details

Date: 01 February 2020
Orbit: 549 x 1099 km, 38.8° (Epoch: 20 February)

Event Time Altitude Azimuth Distance (km) Brightness Sun altitude
Rises 22:05:57 0° 268° (W) 3,576 ? -47.0°
Reaches altitude 10° 22:08:27 10° 266° (W) 2,704 ? -47.4°
Enters shadow 22:08:57 13° 265° (W) 2,535 ? -47.5°
